• în Republica Moldova
  • Lista ţărilor
  • Pe 7 zile
  • Temperatura apei
  • Hartă satelitară
  • Meteo pe hartă
  • Widget-uri
  • user-avatar
    Intrare

    Meteo pe oră la Luanda

    Astăzi, 23 Aprilie, Luni

    Timp Temperatura Precipitaţii Vânt Presiune Umiditate
    00:00 +27°C° 0,8 mm 2 m/s 753 mmHg 93%
    01:00 +27°C° 0,8 mm 2 m/s 753 mmHg 95%
    02:00 +27°C° 0,5 mm 2 m/s 753 mmHg 95%
    03:00 +27°C° 0,5 mm 2 m/s 753 mmHg 96%
    04:00 +26°C° 0,5 mm 2 m/s 753 mmHg 96%
    05:00 +26°C° 0 mm 2 m/s 753 mmHg 96%
    06:00 +27°C° 0 mm 2 m/s 753 mmHg 96%
    07:00 +27°C° 0 mm 2 m/s 753 mmHg 96%
    08:00 +28°C° 0,5 mm 3 m/s 754 mmHg 87%
    09:00 +30°C° 0,5 mm 3 m/s 754 mmHg 78%
    10:00 +33°C° 0,5 mm 3 m/s 754 mmHg 70%
    11:00 +35°C° 0,1 mm 3 m/s 753 mmHg 62%
    12:00 +37°C° 0,1 mm 2 m/s 753 mmHg 54%
    13:00 +37°C° 0,1 mm 1 m/s 752 mmHg 46%
    14:00 +37°C° 0 mm 2 m/s 752 mmHg 49%
    15:00 +37°C° 0 mm 3 m/s 751 mmHg 53%
    16:00 +36°C° 0 mm 4 m/s 751 mmHg 57%
    17:00 +34°C° 0 mm 4 m/s 751 mmHg 66%
    18:00 +32°C° 0 mm 4 m/s 751 mmHg 75%
    19:00 +30°C° 0 mm 4 m/s 752 mmHg 83%
    20:00 +29°C° 0 mm 3 m/s 752 mmHg 85%
    21:00 +29°C° 0 mm 3 m/s 753 mmHg 86%
    22:00 +29°C° 0 mm 3 m/s 753 mmHg 88%
    23:00 +28°C° 0,5 mm 2 m/s 753 mmHg 90%

    Mâine, 24 Aprilie, Marţi

    Timp Temperatura Precipitaţii Vânt Presiune Umiditate
    00:00 +28°C° 0,5 mm 2 m/s 753 mmHg 91%
    01:00 +27°C° 0,5 mm 2 m/s 753 mmHg 93%
    02:00 +27°C° 0 mm 2 m/s 753 mmHg 93%
    03:00 +27°C° 0 mm 2 m/s 753 mmHg 94%
    04:00 +27°C° 0 mm 2 m/s 753 mmHg 94%
    05:00 +27°C° 0 mm 2 m/s 753 mmHg 93%
    06:00 +27°C° 0 mm 2 m/s 753 mmHg 93%
    07:00 +27°C° 0 mm 3 m/s 754 mmHg 92%
    08:00 +29°C° 0 mm 2 m/s 754 mmHg 83%
    09:00 +31°C° 0 mm 2 m/s 754 mmHg 74%
    10:00 +34°C° 0 mm 2 m/s 755 mmHg 65%
    11:00 +35°C° 0 mm 2 m/s 754 mmHg 60%
    12:00 +36°C° 0 mm 2 m/s 753 mmHg 55%
    13:00 +37°C° 0 mm 2 m/s 753 mmHg 50%
    14:00 +36°C° 0,8 mm 3 m/s 752 mmHg 58%
    15:00 +35°C° 0,8 mm 3 m/s 752 mmHg 65%
    16:00 +34°C° 0,8 mm 4 m/s 751 mmHg 72%
    17:00 +32°C° 0,8 mm 4 m/s 752 mmHg 78%
    18:00 +30°C° 0,8 mm 4 m/s 752 mmHg 84%
    19:00 +29°C° 0,8 mm 4 m/s 753 mmHg 89%
    20:00 +29°C° 0,7 mm 4 m/s 753 mmHg 90%
    21:00 +28°C° 0,7 mm 4 m/s 754 mmHg 91%
    22:00 +28°C° 0,7 mm 3 m/s 754 mmHg 92%
    23:00 +28°C° 0,8 mm 3 m/s 754 mmHg 92%

    Poimâine, 25 Aprilie, Miercuri

    Timp Temperatura Precipitaţii Vânt Presiune Umiditate
    00:00 +28°C° 0,8 mm 3 m/s 754 mmHg 92%
    01:00 +28°C° 0,8 mm 3 m/s 754 mmHg 91%
    02:00 +28°C° 0,2 mm 3 m/s 753 mmHg 93%
    03:00 +27°C° 0,2 mm 3 m/s 753 mmHg 94%
    04:00 +27°C° 0,2 mm 3 m/s 752 mmHg 95%
    05:00 +27°C° 0 mm 3 m/s 753 mmHg 95%
    06:00 +27°C° 0 mm 3 m/s 753 mmHg 94%
    07:00 +27°C° 0 mm 3 m/s 753 mmHg 94%
    08:00 +29°C° 0 mm 3 m/s 754 mmHg 85%
    09:00 +31°C° 0 mm 3 m/s 754 mmHg 76%
    10:00 +34°C° 0 mm 3 m/s 754 mmHg 67%
    11:00 +35°C° 0 mm 3 m/s 754 mmHg 62%
    12:00 +36°C° 0 mm 3 m/s 753 mmHg 57%
    13:00 +37°C° 0 mm 3 m/s 752 mmHg 51%
    14:00 +36°C° 1 mm 3 m/s 752 mmHg 59%
    15:00 +35°C° 1 mm 3 m/s 751 mmHg 67%
    16:00 +33°C° 1 mm 4 m/s 751 mmHg 75%
    17:00 +31°C° 0,1 mm 3 m/s 751 mmHg 80%
    18:00 +30°C° 0,1 mm 3 m/s 752 mmHg 84%
    19:00 +29°C° 0,1 mm 3 m/s 752 mmHg 89%
    20:00 +29°C° 0,1 mm 3 m/s 753 mmHg 90%
    21:00 +29°C° 0,1 mm 2 m/s 753 mmHg 90%
    22:00 +28°C° 0,1 mm 2 m/s 754 mmHg 91%
    23:00 +28°C° 1,2 mm 2 m/s 754 mmHg 91%

    26 Aprilie, Joi

    Timp Temperatura Precipitaţii Vânt Presiune Umiditate
    00:00 +28°C° 1,2 mm 2 m/s 754 mmHg 92%
    01:00 +28°C° 1,2 mm 2 m/s 753 mmHg 93%
    02:00 +28°C° 1,7 mm 2 m/s 753 mmHg 92%
    03:00 +27°C° 1,7 mm 2 m/s 753 mmHg 91%
    04:00 +27°C° 1,7 mm 2 m/s 753 mmHg 91%
    05:00 +27°C° 0 mm 1 m/s 753 mmHg 91%
    06:00 +27°C° 0 mm 1 m/s 753 mmHg 91%
    07:00 +28°C° 0 mm 1 m/s 754 mmHg 91%
    08:00 +29°C° 0 mm 1 m/s 754 mmHg 86%
    09:00 +30°C° 0 mm 1 m/s 754 mmHg 80%
    10:00 +31°C° 0 mm 2 m/s 754 mmHg 75%
    11:00 +32°C° 0 mm 2 m/s 754 mmHg 70%
    12:00 +34°C° 0 mm 2 m/s 753 mmHg 65%
    13:00 +35°C° 0 mm 2 m/s 752 mmHg 60%
    14:00 +34°C° 0 mm 2 m/s 752 mmHg 62%
    15:00 +34°C° 0 mm 2 m/s 751 mmHg 64%
    16:00 +34°C° 0 mm 3 m/s 751 mmHg 65%
    17:00 +31°C° 0 mm 2 m/s 752 mmHg 71%
    18:00 +30°C° 0 mm 2 m/s 752 mmHg 77%
    19:00 +28°C° 0 mm 2 m/s 753 mmHg 83%
    20:00 +28°C° 0 mm 2 m/s 753 mmHg 84%
    21:00 +28°C° 0 mm 2 m/s 753 mmHg 84%
    22:00 +28°C° 0 mm 2 m/s 754 mmHg 85%
    23:00 +28°C° 0 mm 2 m/s 753 mmHg 86%

    27 Aprilie, Vineri

    Timp Temperatura Precipitaţii Vânt Presiune Umiditate
    00:00 +27°C° 0 mm 2 m/s 753 mmHg 87%
    01:00 +27°C° 0 mm 2 m/s 753 mmHg 89%
    02:00 +27°C° 0 mm 3 m/s 752 mmHg 90%
    03:00 +27°C° 0 mm 3 m/s 752 mmHg 91%
    04:00 +26°C° 0 mm 3 m/s 752 mmHg 93%
    05:00 +26°C° 0 mm 3 m/s 752 mmHg 92%
    06:00 +26°C° 0 mm 3 m/s 753 mmHg 92%
    07:00 +27°C° 0 mm 3 m/s 753 mmHg 92%
    08:00 +28°C° 0 mm 3 m/s 753 mmHg 84%
    09:00 +30°C° 0 mm 2 m/s 753 mmHg 75%
    10:00 +32°C° 0 mm 2 m/s 753 mmHg 67%
    11:00 +34°C° 0 mm 2 m/s 753 mmHg 61%
    12:00 +36°C° 0 mm 2 m/s 752 mmHg 56%
    13:00 +37°C° 0 mm 2 m/s 751 mmHg 51%
    14:00 +37°C° 0 mm 3 m/s 751 mmHg 52%
    15:00 +37°C° 0 mm 4 m/s 750 mmHg 54%
    16:00 +36°C° 0 mm 4 m/s 750 mmHg 55%
    17:00 +34°C° 0 mm 4 m/s 750 mmHg 66%
    18:00 +32°C° 0 mm 4 m/s 751 mmHg 77%
    19:00 +29°C° 0 mm 4 m/s 751 mmHg 89%
    20:00 +29°C° 0 mm 4 m/s 752 mmHg 90%
    21:00 +28°C° 0 mm 4 m/s 752 mmHg 91%
    22:00 +28°C° 0 mm 3 m/s 753 mmHg 93%
    23:00 +28°C° 0,1 mm 3 m/s 752 mmHg 93%

    28 Aprilie, Sâmbătă

    Timp Temperatura Precipitaţii Vânt Presiune Umiditate
    00:00 +27°C° 0,1 mm 3 m/s 752 mmHg 94%
    01:00 +27°C° 0,1 mm 3 m/s 752 mmHg 95%
    02:00 +27°C° 1,8 mm 3 m/s 752 mmHg 96%
    03:00 +27°C° 1,8 mm 3 m/s 752 mmHg 96%
    04:00 +27°C° 1,8 mm 3 m/s 752 mmHg 97%
    05:00 +27°C° 0,4 mm 3 m/s 752 mmHg 96%
    06:00 +27°C° 0,4 mm 3 m/s 753 mmHg 95%
    07:00 +27°C° 0,4 mm 2 m/s 754 mmHg 94%
    08:00 +29°C° 0,5 mm 2 m/s 754 mmHg 83%
    09:00 +31°C° 0,5 mm 2 m/s 754 mmHg 72%
    10:00 +34°C° 0,5 mm 2 m/s 754 mmHg 62%
    11:00 +36°C° 0 mm 2 m/s 753 mmHg 57%
    12:00 +37°C° 0 mm 2 m/s 753 mmHg 52%
    13:00 +38°C° 0 mm 3 m/s 752 mmHg 48%
    14:00 +37°C° 0 mm 3 m/s 751 mmHg 51%
    15:00 +37°C° 0 mm 4 m/s 751 mmHg 54%
    16:00 +36°C° 0 mm 5 m/s 751 mmHg 57%
    17:00 +34°C° 0 mm 4 m/s 751 mmHg 66%
    18:00 +32°C° 0 mm 4 m/s 752 mmHg 75%
    19:00 +29°C° 0 mm 4 m/s 752 mmHg 84%
    20:00 +29°C° 0 mm 4 m/s 753 mmHg 86%
    21:00 +29°C° 0 mm 4 m/s 753 mmHg 88%
    22:00 +28°C° 0 mm 3 m/s 754 mmHg 91%
    23:00 +28°C° 0 mm 3 m/s 753 mmHg 92%
    Arată mai mult